Hourly Weather Biskira

Today, 19 September, Saturday

Time Temperature Precipitation Wind Pressure Humidity
00:00 +33°C° 0 mm 4 mps 755 mmHg 40%
01:00 +33°C° 0 mm 3 mps 754 mmHg 40%
02:00 +32°C° 0 mm 2 mps 754 mmHg 41%
03:00 +31°C° 0 mm 2 mps 754 mmHg 41%
04:00 +31°C° 0 mm 1 mps 754 mmHg 42%
05:00 +31°C° 0 mm 1 mps 754 mmHg 43%
06:00 +31°C° 0 mm 1 mps 754 mmHg 44%
07:00 +32°C° 0 mm 1 mps 754 mmHg 39%
08:00 +34°C° 0 mm 1 mps 754 mmHg 33%
09:00 +36°C° 0 mm 2 mps 754 mmHg 28%
10:00 +37°C° 0 mm 2 mps 754 mmHg 25%
11:00 +38°C° 0 mm 2 mps 754 mmHg 22%
12:00 +39°C° 0 mm 2 mps 753 mmHg 19%
13:00 +40°C° 0 mm 2 mps 753 mmHg 18%
14:00 +40°C° 0 mm 2 mps 752 mmHg 18%
15:00 +40°C° 0 mm 1 mps 752 mmHg 18%
16:00 +40°C° 0 mm 1 mps 752 mmHg 20%
17:00 +39°C° 0 mm 1 mps 752 mmHg 22%
18:00 +37°C° 0 mm 1 mps 752 mmHg 24%
19:00 +37°C° 0 mm 1 mps 752 mmHg 24%
20:00 +36°C° 0 mm 1 mps 753 mmHg 24%
21:00 +36°C° 0 mm 1 mps 753 mmHg 25%
22:00 +36°C° 0 mm 2 mps 753 mmHg 25%
23:00 +36°C° 0 mm 2 mps 753 mmHg 25%

Tomorrow, 20 September, Sunday

Time Temperature Precipitation Wind Pressure Humidity
00:00 +36°C° 0 mm 2 mps 752 mmHg 25%
01:00 +35°C° 0 mm 3 mps 752 mmHg 28%
02:00 +34°C° 0 mm 4 mps 752 mmHg 30%
03:00 +33°C° 0 mm 5 mps 752 mmHg 33%
04:00 +33°C° 0 mm 5 mps 752 mmHg 36%
05:00 +32°C° 0 mm 5 mps 753 mmHg 39%
06:00 +32°C° 0 mm 5 mps 753 mmHg 43%
07:00 +33°C° 0 mm 4 mps 753 mmHg 39%
08:00 +34°C° 0 mm 4 mps 753 mmHg 36%
09:00 +35°C° 0 mm 4 mps 753 mmHg 33%
10:00 +36°C° 0 mm 4 mps 753 mmHg 30%
11:00 +37°C° 0 mm 3 mps 752 mmHg 27%
12:00 +38°C° 0 mm 3 mps 752 mmHg 24%
13:00 +38°C° 0 mm 2 mps 752 mmHg 23%
14:00 +37°C° 0 mm 1 mps 751 mmHg 22%
15:00 +39°C° 0 mm 1 mps 751 mmHg 21%
16:00 +37°C° 0 mm 2 mps 751 mmHg 25%
17:00 +35°C° 0 mm 4 mps 751 mmHg 29%
18:00 +33°C° 0 mm 6 mps 752 mmHg 33%
19:00 +33°C° 0.1 mm 5 mps 752 mmHg 34%
20:00 +34°C° 0.1 mm 4 mps 752 mmHg 34%
21:00 +34°C° 0.1 mm 3 mps 753 mmHg 35%
22:00 +33°C° 0.1 mm 3 mps 753 mmHg 35%
23:00 +32°C° 0.1 mm 2 mps 752 mmHg 36%

Day after tomorrow, 21 September, Monday

Time Temperature Precipitation Wind Pressure Humidity
00:00 +32°C° 0.1 mm 2 mps 752 mmHg 37%
01:00 +31°C° 0.1 mm 3 mps 752 mmHg 38%
02:00 +32°C° 0.1 mm 5 mps 752 mmHg 38%
03:00 +32°C° 0.1 mm 7 mps 752 mmHg 39%
04:00 +32°C° 0 mm 5 mps 752 mmHg 40%
05:00 +30°C° 0 mm 3 mps 752 mmHg 41%
06:00 +30°C° 0 mm 2 mps 752 mmHg 42%
07:00 +31°C° 0 mm 3 mps 752 mmHg 38%
08:00 +33°C° 0 mm 3 mps 752 mmHg 35%
09:00 +34°C° 0 mm 4 mps 752 mmHg 32%
10:00 +35°C° 0 mm 5 mps 752 mmHg 30%
11:00 +35°C° 0 mm 5 mps 752 mmHg 28%
12:00 +36°C° 0 mm 5 mps 752 mmHg 25%
13:00 +37°C° 0.1 mm 4 mps 751 mmHg 24%
14:00 +37°C° 0.1 mm 3 mps 751 mmHg 23%
15:00 +37°C° 0.1 mm 3 mps 751 mmHg 22%
16:00 +36°C° 0.3 mm 3 mps 751 mmHg 25%
17:00 +35°C° 0.3 mm 4 mps 751 mmHg 27%
18:00 +34°C° 0.3 mm 5 mps 751 mmHg 30%
19:00 +34°C° 0 mm 4 mps 751 mmHg 32%
20:00 +33°C° 0 mm 3 mps 751 mmHg 34%
21:00 +31°C° 0 mm 2 mps 752 mmHg 37%
22:00 +31°C° 0.2 mm 2 mps 751 mmHg 39%
23:00 +30°C° 0.2 mm 1 mps 751 mmHg 41%

22 September, Tuesday

Time Temperature Precipitation Wind Pressure Humidity
00:00 +28°C° 0.2 mm 0 mps 751 mmHg 44%
01:00 +30°C° 0.1 mm 1 mps 751 mmHg 43%
02:00 +30°C° 0.1 mm 1 mps 751 mmHg 43%
03:00 +29°C° 0.1 mm 2 mps 751 mmHg 42%
04:00 +29°C° 0 mm 1 mps 751 mmHg 43%
05:00 +29°C° 0 mm 1 mps 751 mmHg 43%
06:00 +29°C° 0 mm 1 mps 751 mmHg 43%
07:00 +30°C° 0 mm 1 mps 751 mmHg 40%
08:00 +31°C° 0 mm 1 mps 751 mmHg 37%
09:00 +32°C° 0 mm 2 mps 751 mmHg 34%
10:00 +34°C° 0 mm 2 mps 751 mmHg 32%
11:00 +34°C° 0 mm 3 mps 751 mmHg 31%
12:00 +35°C° 0 mm 3 mps 751 mmHg 29%
13:00 +35°C° 0.1 mm 3 mps 751 mmHg 29%
14:00 +35°C° 0.1 mm 2 mps 751 mmHg 29%
15:00 +34°C° 0.1 mm 1 mps 750 mmHg 29%
16:00 +34°C° 0.1 mm 2 mps 751 mmHg 31%
17:00 +34°C° 0.1 mm 2 mps 751 mmHg 33%
18:00 +32°C° 0.1 mm 2 mps 751 mmHg 35%
19:00 +33°C° 0.1 mm 3 mps 751 mmHg 39%
20:00 +32°C° 0.1 mm 4 mps 752 mmHg 42%
21:00 +30°C° 0.1 mm 5 mps 752 mmHg 45%
22:00 +30°C° 0 mm 3 mps 752 mmHg 45%
23:00 +30°C° 0 mm 2 mps 752 mmHg 44%

23 September, Wednesday

Time Temperature Precipitation Wind Pressure Humidity
00:00 +30°C° 0 mm 1 mps 752 mmHg 44%
01:00 +30°C° 0.2 mm 1 mps 752 mmHg 47%
02:00 +29°C° 0.2 mm 1 mps 752 mmHg 49%
03:00 +28°C° 0.2 mm 1 mps 752 mmHg 52%
04:00 +27°C° 0.4 mm 3 mps 752 mmHg 54%
05:00 +26°C° 0.4 mm 5 mps 752 mmHg 57%
06:00 +26°C° 0.4 mm 6 mps 752 mmHg 59%
07:00 +26°C° 0 mm 5 mps 752 mmHg 54%
08:00 +27°C° 0 mm 4 mps 752 mmHg 49%
09:00 +28°C° 0 mm 2 mps 752 mmHg 44%
10:00 +29°C° 0 mm 3 mps 752 mmHg 43%
11:00 +30°C° 0 mm 3 mps 752 mmHg 41%
12:00 +30°C° 0 mm 3 mps 751 mmHg 39%
13:00 +31°C° 0 mm 2 mps 751 mmHg 37%
14:00 +31°C° 0 mm 1 mps 750 mmHg 35%
15:00 +32°C° 0 mm 1 mps 750 mmHg 33%
16:00 +32°C° 0 mm 1 mps 750 mmHg 35%
17:00 +29°C° 0 mm 0 mps 750 mmHg 37%
18:00 +29°C° 0 mm 0 mps 750 mmHg 40%
19:00 +30°C° 0 mm 1 mps 750 mmHg 40%
20:00 +30°C° 0 mm 1 mps 751 mmHg 41%
21:00 +30°C° 0 mm 1 mps 751 mmHg 41%
22:00 +29°C° 0 mm 1 mps 751 mmHg 42%
23:00 +29°C° 0 mm 1 mps 751 mmHg 42%

24 September, Thursday

Time Temperature Precipitation Wind Pressure Humidity
00:00 +29°C° 0 mm 1 mps 750 mmHg 42%
01:00 +29°C° 0 mm 1 mps 750 mmHg 42%
02:00 +29°C° 0 mm 2 mps 750 mmHg 41%
03:00 +29°C° 0 mm 2 mps 750 mmHg 41%
04:00 +28°C° 0 mm 2 mps 750 mmHg 42%
05:00 +28°C° 0 mm 2 mps 750 mmHg 43%
06:00 +28°C° 0 mm 2 mps 750 mmHg 44%
07:00 +29°C° 0 mm 3 mps 750 mmHg 40%
08:00 +30°C° 0 mm 3 mps 750 mmHg 37%
09:00 +33°C° 0 mm 4 mps 750 mmHg 34%
10:00 +34°C° 0 mm 5 mps 749 mmHg 31%
11:00 +35°C° 0 mm 5 mps 749 mmHg 29%
12:00 +36°C° 0 mm 6 mps 749 mmHg 26%
13:00 +36°C° 0 mm 5 mps 748 mmHg 25%
14:00 +37°C° 0 mm 5 mps 747 mmHg 24%
15:00 +37°C° 0 mm 4 mps 747 mmHg 23%
16:00 +36°C° 0 mm 3 mps 747 mmHg 25%
17:00 +35°C° 0 mm 2 mps 747 mmHg 28%
18:00 +34°C° 0 mm 1 mps 747 mmHg 30%
19:00 +34°C° 0 mm 3 mps 747 mmHg 31%
20:00 +33°C° 0 mm 4 mps 747 mmHg 32%
21:00 +33°C° 0 mm 5 mps 748 mmHg 33%
22:00 +33°C° 0 mm 5 mps 748 mmHg 34%
23:00 +32°C° 0 mm 5 mps 748 mmHg 35%
Show more